Theta_e
301 302 301 301 301 301 300 299 299 300 300 300 300 301 301 301 302 301 302 303 304 304 306 303 302 305 315 314 315 318 312 313 315 314 315 308 307 308 305 305 306 307 308 307 306
302 302 302 301 301 301 300 299 299 300 300 300 300 302 301 301 302 301 301 303 304 306 306 304 302 305 309 312 315 313 310 311 310 310 310 306 305 304 304 302 302 303 304 305 304
304 303 302 301 301 301 300 299 299 300 300 300 301 302 303 302 304 301 301 302 303 306 306 305 306 308 310 312 312 310 310 308 307 306 305 304 302 303 301 301 302 302 303 303 303
304 305 304 302 301 301 301 300 299 300 300 300 302 301 303 302 305 301 301 302 304 307 307 308 308 308 308 308 308 309 306 305 305 305 304 303 303 302 301 303 304 303 303 303 304
308 305 306 303 302 302 301 300 299 300 300 300 301 303 304 303 301 301 301 302 304 306 308 308 308 307 307 305 305 305 303 304 304 304 303 303 302 301 302 304 303 303 303 303 304
314 308 305 306 302 302 302 301 300 300 301 301 301 301 303 300 301 301 301 301 303 306 307 307 307 306 304 303 302 303 303 302 302 303 302 302 301 301 303 303 303 303 303 303 303
317 316 311 306 306 303 302 301 300 300 301 301 301 301 302 301 301 301 301 301 302 304 305 306 306 305 304 302 302 303 303 301 300 301 301 300 298 298 301 302 302 303 302 303 303
317 317 318 313 307 305 303 301 301 300 300 300 300 301 302 301 301 301 301 301 301 304 305 305 305 304 304 303 300 299 298 299 299 299 301 301 297 300 301 300 300 302 303 304 303
318 317 317 318 314 307 304 302 301 300 300 300 301 301 303 301 302 301 301 301 301 302 304 305 304 301 302 301 300 296 299 299 297 298 298 299 298 298 300 299 300 302 303 303 304
318 317 316 316 318 312 304 301 302 301 301 300 301 301 301 302 301 301 301 301 303 304 304 305 301 296 295 298 302 299 299 298 298 297 297 297 296 297 298 299 302 304 304 303 305
316 318 316 317 316 317 305 301 302 303 303 303 303 302 303 302 301 302 301 303 304 304 300 301 299 297 299 299 298 298 299 299 297 297 296 294 294 297 299 300 301 303 304 303 305
316 317 317 316 315 316 303 300 300 301 301 301 301 302 302 301 302 301 302 303 302 300 301 299 298 298 299 300 300 300 298 297 296 297 297 297 299 299 298 300 303 303 303 305 305
312 315 315 317 315 306 305 300 300 301 299 302 301 301 301 301 301 300 302 302 299 301 301 300 299 299 299 300 299 297 297 298 297 297 298 299 299 300 302 302 303 302 304 303 302
309 313 314 315 315 313 305 299 300 301 304 305 300 301 300 301 302 300 302 302 299 299 299 300 298 299 299 300 297 297 297 298 298 299 299 300 298 300 301 301 301 302 303 303 301
307 311 312 316 316 315 312 305 301 305 316 305 300 301 301 301 301 301 301 302 298 299 298 299 297 298 299 300 297 297 298 299 299 299 300 301 298 300 300 302 300 299 303 303 299
303 308 310 312 313 314 309 305 313 312 316 303 301 301 301 301 300 301 301 300 299 298 297 297 297 298 298 297 297 298 299 297 297 300 294 299 300 297 298 301 301 299 302 301 298
300 304 308 310 312 313 309 307 311 313 305 305 300 301 301 301 300 301 299 299 299 299 299 298 298 297 296 297 298 297 295 292 295 293 298 297 301 301 298 298 300 299 301 299 297
300 304 306 308 312 312 310 306 312 312 304 301 300 301 301 300 300 300 299 298 297 298 298 299 301 298 296 295 297 301 295 295 294 295 295 296 298 298 298 300 299 301 300 297 298
300 302 305 307 310 311 310 311 307 312 307 301 300 302 301 300 300 300 299 299 298 296 302 297 298 296 296 297 298 299 295 294 289 286 291 295 295 295 296 295 299 299 299 297 297
297 301 303 306 309 309 306 313 310 306 301 301 304 301 301 299 299 300 299 300 300 297 297 297 298 295 297 298 298 299 296 297 291 294 293 295 294 295 297 300 297 297 297 296 297
297 301 303 306 306 304 309 309 308 304 302 305 302 305 306 302 299 300 301 300 299 297 296 295 299 296 295 296 299 298 296 292 294 293 293 290 297 293 295 296 294 295 296 295 296
297 302 302 304 301 301 306 305 305 300 301 302 304 307 308 306 301 300 300 300 298 297 298 297 299 298 298 294 296 297 297 293 295 294 291 290 296 295 294 293 295 296 296 296 296
295 299 301 302 304 305 301 303 301 300 300 302 305 305 301 304 309 300 300 298 297 296 298 297 295 298 302 298 295 297 297 293 287 288 293 292 300 294 294 295 296 296 297 296 296
294 299 298 298 299 301 305 303 300 300 301 303 302 301 301 302 301 303 299 298 297 297 298 297 295 300 309 305 297 296 296 294 291 289 290 294 297 301 300 294 294 295 295 296 296
293 295 298 299 299 301 303 302 304 299 301 301 300 302 303 303 301 301 300 298 298 299 296 295 294 292 293 294 295 296 297 295 294 291 297 305 294 299 293 290 292 296 296 296 296
294 294 296 295 296 299 302 305 305 299 301 302 302 301 301 302 303 302 300 299 299 297 296 294 295 295 295 294 294 296 296 296 296 295 292 295 296 298 298 297 295 296 296 296 297
293 294 292 292 294 298 301 302 303 301 300 301 302 302 301 302 299 297 298 297 298 298 297 295 294 293 296 293 293 300 298 296 295 293 294 295 298 291 291 288 292 295 295 296 297
Wind_Speed
14 14 15 15 14 13 12 12 12 10 9 9 10 10 4 3 4 5 3 2 1 2 2 6 12 14 14 6 5 4 3 1 3 4 2 4 5 2 5 6 6 4 3 3 3
14 15 15 15 15 13 12 12 14 11 9 7 8 7 4 4 5 6 5 4 2 3 4 7 13 15 7 5 4 4 3 6 1 1 1 2 3 6 6 7 5 8 8 6 8
14 15 15 16 15 14 12 12 14 11 9 6 7 4 6 4 5 3 6 3 2 4 8 10 14 7 5 5 3 3 5 3 1 1 1 1 3 3 1 4 7 6 8 12 9
17 15 15 15 16 15 14 12 13 11 9 5 6 4 5 4 1 4 4 1 1 8 11 11 9 4 4 5 4 3 2 2 0 1 1 3 3 4 10 9 8 13 11 8 4
18 18 17 17 15 16 14 13 11 11 9 6 5 5 4 2 3 6 2 1 4 9 11 9 9 5 6 5 4 2 1 1 2 5 6 6 8 7 16 22 15 4 3 8 12
19 19 18 18 18 16 15 15 12 10 8 7 6 5 3 1 3 4 1 2 4 8 11 10 7 6 7 3 3 2 0 4 2 2 3 3 4 1 6 5 10 7 10 20 21
19 20 20 20 20 20 18 16 14 9 7 7 6 4 4 3 2 6 1 3 5 6 9 8 9 4 7 4 3 1 1 1 4 6 3 8 4 7 6 5 6 13 22 20 14
19 20 22 23 23 23 21 17 14 11 8 6 5 5 2 4 4 5 1 2 6 9 10 10 9 9 4 7 4 3 4 2 2 7 2 4 8 2 7 3 21 19 13 10 6
19 21 20 23 25 25 22 18 12 8 5 7 5 3 2 3 2 3 1 3 5 6 6 7 5 4 4 4 3 6 1 2 7 4 4 3 8 4 7 24 25 14 11 2 1
18 19 20 22 25 26 21 16 8 4 3 4 5 3 3 2 2 2 2 5 3 7 4 1 3 3 3 4 3 2 1 2 5 4 5 6 16 14 20 20 21 15 6 1 5
18 19 20 19 22 25 21 12 6 4 3 5 3 3 2 3 3 2 2 5 6 3 2 3 4 2 4 3 4 6 3 2 4 3 5 5 10 20 15 14 10 5 3 4 7
19 18 19 20 19 20 17 6 5 5 8 8 8 7 6 3 2 3 3 4 3 3 1 5 1 3 5 5 5 4 2 4 5 1 1 7 20 14 6 5 4 7 8 9 4
24 20 19 18 18 12 14 10 7 7 4 4 6 4 3 4 3 3 4 5 3 4 2 4 2 4 2 2 3 3 3 2 1 7 3 7 7 5 2 1 3 9 9 6 2
24 19 17 17 14 11 9 12 12 9 3 3 2 1 3 3 1 1 4 3 3 5 6 3 3 4 1 1 3 1 4 3 3 4 3 4 4 5 4 5 4 8 10 6 5
22 18 15 13 14 13 12 6 12 5 2 1 2 3 4 3 3 1 3 2 6 4 4 3 6 4 2 2 3 2 2 2 1 1 3 2 3 7 2 7 8 10 14 8 8
17 18 14 15 14 14 6 7 4 3 9 2 1 2 3 1 1 3 1 4 5 4 4 3 1 1 1 2 2 4 4 5 4 2 3 2 3 6 5 6 3 5 15 7 14
19 19 15 15 14 12 5 2 3 4 4 2 1 2 1 3 2 4 3 3 5 4 4 1 2 1 2 3 1 2 5 3 5 4 5 3 1 11 6 6 4 7 11 6 16
16 13 15 17 17 11 10 3 5 5 6 3 4 2 1 2 3 3 3 3 3 3 3 6 4 5 3 1 4 2 5 5 5 2 4 3 6 6 5 2 8 8 9 10 20
15 13 17 17 17 18 10 5 6 6 9 1 3 1 3 2 2 4 6 5 7 9 7 5 2 2 4 2 2 3 1 2 7 2 3 3 7 10 6 7 6 10 7 15 22
23 16 19 18 17 18 2 10 5 2 4 3 8 4 4 2 3 4 7 3 5 3 0 5 4 1 2 2 6 2 5 3 3 1 4 5 6 6 4 3 6 8 8 17 25
17 8 8 16 15 9 7 6 5 5 7 7 4 3 4 1 2 3 3 0 2 4 2 3 3 1 2 6 6 2 1 4 3 3 4 2 6 8 7 5 7 8 12 17 22
13 5 6 18 6 4 8 6 6 5 4 2 4 4 6 9 4 4 4 2 3 7 7 4 4 3 3 0 1 2 5 5 4 5 1 3 8 3 7 7 8 12 16 23 22
10 11 11 27 8 13 2 3 5 6 6 7 7 4 2 6 3 2 2 2 4 3 5 5 1 2 3 2 3 4 5 4 4 3 6 5 7 2 3 5 10 13 19 29 19
7 3 11 22 10 5 18 11 5 9 4 4 5 6 4 3 2 3 2 1 1 1 4 5 2 5 5 3 5 5 5 7 5 4 5 9 10 21 13 8 9 19 28 21 17
11 5 6 4 10 8 6 9 16 9 6 8 2 5 6 5 4 5 3 1 2 4 3 3 4 2 3 4 2 3 5 12 10 7 8 13 10 18 9 9 14 26 26 19 18
14 7 8 9 9 17 19 12 21 4 10 5 4 13 11 7 9 9 8 5 5 1 4 1 2 2 4 1 5 5 10 13 17 7 13 14 21 26 30 24 20 22 16 18 18
21 25 18 10 9 8 18 24 18 8 11 8 16 6 11 11 10 6 6 8 4 7 5 5 5 3 5 3 4 6 10 17 5 5 9 9 16 2 6 4 12 17 16 19 15
Wind_Direction
1 357 358 357 350 345 335 338 336 333 323 319 332 336 321 218 349 2 333 320 295 164 172 183 174 175 176 155 123 118 68 235 255 164 273 359 20 360 333 299 307 287 269 210 260
2 356 355 356 348 348 335 338 338 333 328 316 336 342 345 246 304 328 349 12 7 128 157 161 155 155 141 133 139 100 126 217 236 162 104 344 4 329 342 339 302 281 257 245 291
359 355 354 351 347 347 335 338 339 333 329 312 335 341 358 287 304 301 343 349 335 154 141 140 143 129 105 137 156 154 183 208 244 98 49 323 273 230 218 276 231 267 275 281 288
351 354 351 351 349 344 335 335 339 332 325 307 331 323 317 339 231 326 343 1 121 160 155 145 157 126 114 149 163 151 194 163 119 193 245 245 266 254 214 241 291 287 276 284 282
352 348 350 351 343 344 335 329 336 330 319 303 302 330 317 295 287 317 337 88 138 164 176 165 160 142 140 138 130 151 235 255 252 265 267 269 246 242 258 270 271 236 243 293 287
354 350 348 344 340 343 338 327 324 324 313 306 282 295 320 333 316 336 333 98 142 175 181 178 176 149 116 114 144 157 282 298 273 335 279 293 285 20 278 179 198 257 267 307 287
352 353 350 345 342 339 336 328 316 311 292 304 273 279 282 251 309 355 47 111 130 149 179 169 151 146 131 114 121 86 161 22 28 344 330 331 270 230 236 204 266 288 295 296 293
343 349 352 349 345 339 333 323 317 299 263 292 275 271 262 231 264 345 114 132 131 118 119 124 135 118 97 125 45 57 56 9 8 9 4 33 276 294 179 346 311 307 316 315 298
330 335 345 350 346 339 333 322 323 305 266 268 253 247 253 242 242 326 148 155 139 142 124 127 146 97 107 104 39 18 230 320 324 60 338 69 278 278 224 312 308 314 336 352 355
319 324 331 341 344 337 336 325 318 313 289 229 232 279 242 230 257 322 152 150 146 137 124 133 69 79 42 74 217 199 354 299 253 323 7 286 271 280 288 299 299 311 332 117 152
305 313 324 334 335 337 337 337 329 266 271 240 194 240 247 280 239 223 197 147 137 127 93 31 70 214 143 111 106 108 103 282 270 326 357 267 275 284 288 278 269 256 246 179 177
307 305 307 330 335 337 338 13 25 324 311 257 241 240 246 250 233 232 183 174 138 128 125 35 158 140 126 99 103 90 99 273 278 337 339 303 291 278 264 242 215 195 170 171 176
288 299 303 312 326 337 348 1 346 340 271 267 226 219 208 213 226 207 187 165 116 120 128 147 145 146 127 125 108 132 167 197 232 333 235 296 292 341 33 113 175 188 171 164 349
284 293 297 303 314 323 336 359 346 336 9 236 216 216 185 177 249 179 171 160 46 149 135 117 146 136 119 168 128 189 146 80 334 3 281 16 277 302 294 284 227 200 195 196 329
267 281 293 290 294 299 306 341 347 338 350 70 194 136 165 169 133 64 153 139 148 137 134 193 154 147 169 256 161 154 78 73 74 115 16 343 61 273 343 267 240 223 215 218 318
306 266 280 283 284 276 268 23 273 9 228 289 116 155 104 176 161 144 143 103 106 103 46 99 91 105 122 81 71 142 91 53 48 46 13 264 108 275 208 217 228 205 211 233 331
314 259 260 257 264 251 217 137 76 217 337 256 221 122 277 181 200 191 172 161 157 117 191 77 149 108 128 109 17 90 73 342 350 7 222 360 308 248 258 244 227 206 193 280 330
321 321 257 247 250 239 166 55 183 183 266 337 93 83 212 169 221 172 138 223 230 106 119 155 293 163 154 174 192 157 154 154 218 247 280 332 235 250 219 299 247 196 195 308 334
301 297 265 246 241 238 171 243 216 199 149 232 42 196 242 236 270 173 201 219 201 180 173 139 173 86 46 72 73 200 126 132 101 55 40 255 286 288 246 253 186 211 250 325 336
312 307 262 242 241 206 156 226 238 145 119 106 174 171 238 221 187 227 172 213 181 184 139 187 96 34 146 90 50 139 142 78 4 92 297 283 279 244 292 274 233 243 249 330 331
310 280 244 219 204 189 211 217 207 213 151 174 191 139 173 252 233 239 226 295 131 132 96 138 103 80 89 200 178 130 359 46 112 120 174 277 262 218 225 233 238 232 240 334 329
286 259 228 185 175 205 221 185 180 167 173 167 130 171 183 172 195 245 231 222 172 164 162 185 129 161 193 20 192 169 181 159 124 227 159 140 270 195 226 248 232 231 255 316 320
283 268 209 189 221 219 178 238 198 152 193 185 165 159 155 166 220 228 270 350 174 161 152 191 264 72 350 14 2 220 186 123 114 92 197 141 262 170 244 221 236 246 277 309 311
267 271 211 210 238 229 221 227 219 205 186 180 127 109 128 177 240 184 258 49 196 167 107 113 115 184 192 163 127 190 181 171 137 132 182 229 280 283 277 262 258 272 297 305 303
213 253 262 215 226 225 204 186 204 195 209 171 124 198 166 170 167 213 209 116 347 176 75 138 210 186 247 219 196 219 180 178 203 190 190 269 222 261 266 270 284 299 300 298 298
213 226 286 313 285 203 223 220 215 192 163 198 182 188 193 173 192 186 156 179 198 109 157 84 223 143 291 299 184 257 215 197 219 219 257 264 283 272 273 277 271 279 283 284 298
254 232 244 272 305 280 218 226 234 149 216 183 199 143 192 221 118 100 131 139 190 158 167 157 144 122 262 357 312 284 227 198 184 193 196 200 237 337 277 249 264 280 276 276 283